• MPC Preparation (Info)

  • MPEC 2020-S142 : 2003 QQ10

    The following Minor Planet Electronic Circular may be linked-to from your own Web pages, but must not otherwise be redistributed electronically.

    A form allowing access to any MPEC is at the bottom of this page.


    Read MPEC 2020-S141 Read MPEC 2020-S143


    M.P.E.C. 2020-S142                           Issued 2020 September 21, 15:01 UT
    
         The Minor Planet Electronic Circulars contain information on unusual
             minor planets and routine data on comets.  They are published
        on behalf of Division F of the International Astronomical Union by the
              Minor Planet Center, Smithsonian Astrophysical Observatory,
                              Cambridge, MA 02138, U.S.A.
    
                 Prepared using the Tamkin Foundation Computer Network
    
                                  MPC@CFA.HARVARD.EDU
                URL https://www.minorplanetcenter.net/    ISSN 1523-6714
    
                                    2003 QQ10                                
    
    
                               Revision to MPEC 2003-Q21                            
    
    Additional Observations:
         K03Q10Q 2C2020 09 20.08944404 00 01.54 +30 15 00.5          20.1 GVES142Z84
         K03Q10Q 2C2020 09 20.10170404 00 02.50 +30 15 13.0          20.7 GVES142Z84
         K03Q10Q 2C2020 09 20.11396604 00 03.46 +30 15 25.3          20.1 GVES142Z84
         K03Q10Q 5C2020 09 21.19152 04 01 31.98 +30 33 18.3          19.7 GVES142J04
         K03Q10Q 5C2020 09 21.19908 04 01 32.54 +30 33 25.8          20.1 GVES142J04
         K03Q10Q 5C2020 09 21.20665 04 01 33.12 +30 33 33.2          19.5 GVES142J04
    
    Observer details:
    J04 ESA Optical Ground Station, Tenerife.  Observer E. Kuusela.  Measurers E.
        Schwab, M. Micheli, D. Koschny, A. Knofel, M. Busch.  1.0-m f/4.4
        reflector + CCD.
    Z84 Calar Alto-Schmidt.  Observer E. Schwab.  Measurers E. Schwab, D. Koschny,
        M. Micheli, R. Jehn.  0.8-m f/3 Schmidt + CCD.
    
    First and last observations above in comparison with prediction:
    Residuals in seconds of arc (or two decimals in degrees), reference and Delta-T
    200920 Z84 0.23- 0.04-    200921 J04 0.23- 0.04-    MPO 57920   -0.23 days
    
    Orbital elements:
    2003 QQ10                                                Earth MOID = 0.2872 AU
    Epoch 2020 May 31.0 TT = JDT 2459000.5                  Veres
    M 339.18605              (2000.0)            P               Q
    n   0.29150415     Peri.    4.76404     +0.98319067     +0.17972825
    a   2.2527149      Node   344.76738     -0.17129868     +0.84706804
    e   0.4259142      Incl.    7.02940     -0.06318909     +0.50017346
    P   3.38           H   19.5           G   0.15           U   1
    Residuals in seconds of arc
    030822 644  0.1+  0.1-    030827 176  0.2+  0.3-    030919 132  0.2-  0.2-
    030822 644  0.3+  0.0     030827 198  0.1+  0.1-    030919 132  0.1-  0.1-
    030822 644  0.1-  0.1+    030828 198  0.1+  0.2-    030919 132  0.4+  0.1-
    030822 113  0.2-  0.4+    030828 198  0.1+  0.3-    030919 704  0.6-  0.4+
    030822 113  0.7-  0.2+    030828 198  0.1+  0.6-    030919 704  0.8-  0.4+
    030822 113  0.4-  0.3-    030828 704  0.5-  0.3-    030919 704 (1.2-  1.5+)
    030822 246  0.4-  0.4-    030828 704  0.1+  0.1-    030919 704  1.2-  0.7+
    030822 246  0.4-  0.3-    030828 704  0.3+  0.7+    030919 704  1.0-  0.2+
    030822 246  0.4-  0.3-    030828 704  1.3+  0.0     030920 704  0.0   0.1+
    030822 246  0.2+  0.2-    030828 704  0.9+  0.8-    030920 704  0.4+  0.0
    030822 246  0.5-  0.4-    030830 670  0.3+  0.3-    030920 704  0.5+  0.9-
    030822 246  0.1-  0.0     030830 670  0.2-  0.3+    030920 704  0.0   0.0
    030822 198  0.4+  0.1+    030831 941  0.4+  0.5+    030920 704  0.3+  0.2-
    030822 198  0.5+  0.3+    030831 941  0.2+  0.6+    030921 A21  0.1+  0.4+
    030822 198  0.4+  0.1+    030831 941  0.2+  0.5+    030921 A21  0.1+  0.3+
    030822 118  0.4-  0.8+    030831 941  0.1+  0.7+    030921 A21  0.6+  0.1+
    030822 118  0.1-  0.1+    030831 941  0.1+  0.6+    030921 A21  0.3+  0.4+
    030822 118  0.1+  0.2+    030831 941  0.2+  0.6+    030921 A21  0.2+  0.2+
    030822 176  0.5-  0.2+    030901 704  0.2-  0.7+    030921 A21  0.2+  0.3+
    030822 118  0.5-  0.1+    030901 704  0.5-  0.4+    030921 A21  0.1+  0.3+
    030822 176  0.7-  0.1+    030901 704  0.2-  0.1-    030924 A21  0.1+  0.0
    030823 176  0.7-  0.1-    030901 704  0.2-  0.4+    030924 A21  0.2-  0.2+
    030823 176  0.7-  0.3-    030901 704  0.1+  0.7+    030924 A21  0.4-  0.2+
    030823 176  0.7-  0.3-    030902 704  0.1-  0.8+    030924 A21  0.2-  0.4+
    030823 J95  0.3-  0.2-    030902 704  0.1+  0.2-    030926 108  0.6-  0.8-
    030823 J95  0.3-  0.3-    030902 704  0.0   0.4+    030926 108  0.6-  0.1-
    030823 J95  0.0   0.2-    030902 704  0.3-  0.6+    030926 108 (1.2-  1.5-)
    030823 J87  0.0   0.3+    030902 704  0.0   0.7+    030926 108  0.3-  0.5+
    030823 J87  0.6-  0.1-    030902 A21  0.7-  0.9+    030930 704 (1.5-  2.4-)
    030823 J87  0.4+  0.1-    030902 A21  0.7-  0.4-    030930 704  1.0-  0.1+
    030823 106  0.3-  0.3-    030902 A21 (1.6-  0.5-)   030930 704  1.3-  0.0
    030823 106  0.1+  0.3+    030905 413  0.1+  0.2-    030930 704  1.0-  0.3+
    030823 859  0.3+  0.2+    030905 413  0.1+  0.4-    030930 704  1.0-  0.3+
    030823 859  0.4-  0.0     030905 413  0.1+  0.3-    031003 691  0.2-  0.3-
    030823 859 (0.3+  1.8-)   030906 118  0.1+  0.5+    031003 691  0.0   0.2-
    030823 704  0.3+  0.0     030906 118  0.6-  1.2+    031003 691  0.2-  0.2-
    030823 704  0.3+  0.4+    030907 118  0.4-  0.5+    031004 941  0.1-  0.4-
    030823 704  0.5+  0.5+    030907 413  0.3+  0.4-    031004 941  0.1-  0.7-
    030823 704  0.1-  0.3+    030907 413  0.4+  0.4-    031004 941  0.1-  0.7-
    030823 246  0.2-  0.0     030907 413  0.2+  0.2-    031004 941  0.2-  0.7-
    030823 246  0.1-  0.1+    030908 E14  0.3+  0.2-    031004 941  0.2-  0.7-
    030823 246  0.1+  0.1+    030908 E14  0.8+  0.4-    031014 644  0.1-  0.1+
    030823 246  0.1-  0.3+    030908 E14  0.2+  0.0     031014 644  0.2-  0.4+
    030823 587 (1.6-  0.8+)   030913 163  0.2-  0.1+    031014 644  0.1-  0.2+
    030823 587  0.3-  1.1-    030913 163  0.1+  1.1+    031014 644  0.3-  0.1+
    030823 587 (1.6+  0.2+)   030913 163  0.0   0.4+    031014 644  0.2-  0.0
    030823 151  0.7+  0.2-    030913 163  0.1-  0.7+    031014 644  0.2-  0.0
    030823 151  0.5+  0.0     030913 163  0.3-  0.3+    031017 699  0.4+  0.1+
    030823 151  0.3+  0.6+    030914 608  1.4+  0.7+    031017 699  0.2-  0.2+
    030824 621  0.1-  0.5+    030914 608  1.3+  0.6+    031017 699  0.7+  0.6-
    030824 621  0.4+  0.8-    030914 608  1.3+  0.3-    031017 699  0.2+  1.0-
    030824 621  0.2-  0.7-    030914 151  0.4+  0.2-    031019 699  0.6+  0.8-
    030824 204  0.5+  0.7-    030914 151  0.3+  0.3-    031019 699  0.3-  0.4+
    030824 204  0.6-  1.2-    030914 151  0.3+  0.2-    031019 699  0.1+  0.0
    030824 204  0.4+  0.0     030914 151  0.1+  0.2-    031019 699  1.2-  1.2-
    030824 204  0.0   1.2+    030914 151  0.3+  0.4-    031021 691  0.0   0.2-
    030824 704 (3.4-  0.3-)   030914 151  0.6+  0.3-    031021 691  0.1+  0.0
    030824 704  0.6-  0.5-    030915 699  0.3+  0.7+    031021 691  0.1+  0.0
    030824 704  0.4+  1.3-    030915 699  0.6-  0.2+    031021 644  0.0   0.1+
    030825 170  0.4-  0.3-    030915 699  0.4-  0.6-    031021 644  0.1-  0.0
    030825 170  0.2-  0.3-    030915 699  0.4+  0.4-    031021 644  0.1+  0.2+
    030825 170  0.2-  0.4-    030916 113  0.3-  0.3+    031021 704  0.3-  0.5+
    030826 785  0.3-  0.6+    030916 113  1.1+  0.3+    031021 704 (2.2-  1.0+)
    030826 785 (1.6-  0.0 )   030916 113  0.2+  0.1+    031021 704  0.5-  0.5+
    030826 785  0.4+  1.5+    030916 113  0.3-  0.3-    031021 704 (2.4-  0.2+)
    030826 704  0.3-  0.4+    030916 113  0.1+  0.3+    031024 941  0.3+  0.6+
    030826 704  0.2-  0.6+    030916 246  0.1-  0.1+    031024 941  0.5+  0.6+
    030826 704  0.5-  0.2+    030916 246  0.1+  0.2-    031024 941  0.1+  0.6+
    030826 704  0.5-  1.1+    030916 246  0.1+  0.0     031024 941  0.1+  0.7+
    030826 246  0.1+  0.3+    030916 246  0.0   0.0     031024 941  0.1-  0.6+
    030826 246  0.1-  0.2+    030917 683  0.3-  0.8+    031024 941  0.1+  0.1-
    030826 246  0.2-  0.3+    030917 683  0.1+  0.4+    031024 941  0.1-  0.3-
    030826 246  0.0   0.3+    030917 683 (0.3-  1.7+)   031112 540  0.2+  0.5+
    030826 246  0.1+  0.4+    030918 240  0.1+  0.1-    031112 540  0.2+  0.8-
    030826 246  0.0   0.5+    030918 240  0.2+  0.2-    200920 Z84  0.1+  0.2-
    030827 670  0.2+  0.5+    030918 240  0.1+  0.4-    200920 Z84  0.0   0.1-
    030827 670  0.8+  0.4-    030918 240  0.1+  0.5-    200920 Z84  0.1-  0.3-
    030827 670  0.2+  0.6+    030918 240  0.1+  0.5-    200921 J04  0.0   0.0
    030827 176  0.1+  0.1-    030918 240  0.1+  0.8-    200921 J04  0.1-  0.0
    030827 176  0.1+  0.2-    030918 670 (1.9+  0.6+)   200921 J04  0.2+  0.1-
    030827 176  0.1+  0.3-    030918 670  0.7+  0.4+
    
    Ephemeris:
    2003 QQ10                a,e,i = 2.25, 0.43, 7                   q = 1.2933
    Date    TT    R. A. (2000) Decl.     Delta      r    Elong.  Phase     V
    2020 08 22    03 01 11.6 +20 38 56   0.6526  1.2983   100.3    50.0    21.0
    ...
    2020 09 06    03 35 27.7 +25 58 32   0.6209  1.3194   105.7    47.3    20.9
    ...
    2020 09 14    03 50 31.4 +28 29 27   0.6063  1.3370   109.5    45.2    20.8
    ...
    2020 09 20    03 59 53.5 +30 13 33   0.5964  1.3528   112.9    43.2    20.7
    2020 09 21    04 01 16.3 +30 30 08   0.5948  1.3556   113.5    42.8    20.7
    2020 09 22    04 02 35.9 +30 46 30   0.5933  1.3585   114.1    42.4    20.7
    ...
    2020 09 28    04 09 21.8 +32 20 00   0.5847  1.3771   118.0    40.0    20.6
    ...
    2020 10 06    04 14 56.8 +34 11 33   0.5755  1.4049   124.0    36.2    20.5
    ...
    2020 10 21    04 13 42.5 +36 50 32   0.5687  1.4647   137.2    27.5    20.3
    
    A. U. Tomatic                (C) Copyright 2020 MPC           M.P.E.C. 2020-S142
    


    Read MPEC 2020-S141 Read MPEC 2020-S143


    MPEC number:

    Enter an MPEC number in one of the following forms:

    • 1997-B01 (the full form)
    • J97B01 (the packed version of the full form)
    • B01 (the abbreviated form)